OBJECT A, 66175

Orbit data source: Space-Track

You're viewing an Uncataloged Satellite

Recently launched and/or uncataloged satellites may have evolving metadata. Metadata may include but not limited to: Owner, Maufacturer, Bus, Motor, and Mission.

OBJECT A, 66175 is a satellite owned by Yaogan Zongti (CN) in SSO that was launched on Sun, 26 Oct 2025 UTC via a CHANG ZHENG 3B launch vehicle from the Xichang Space Center, China (XSC). Unknown objects in Earth's orbit typically refer to objects detected orbiting the Earth but have not yet been identified or cataloged. These objects could be anything from previously untracked satellites, spent rocket stages, debris from satellite collisions, or even natural meteoroids temporarily captured by Earth's gravity.

Loading next visibility...
Identifier
66175, 2025-242A
Orbit
SSO
Country
Flag of CNCN / PRC
Related business
Manufacturer
CAST
Mission
Operational spacecraft
Bus & Motor
GF-14, Unknown motor
Mass
~6,500 kg wet, ~5,500 kg dry
Launch date (UTC)
2025-10-26 (2 weeks ago)
Launch vehicle
CHANG ZHENG 3B
Launch site
Xichang Space Center, China (XSC)
Object type
Unknown
Shape & HBR
Unknown shape, 1.1 m
Radar Cross Section
RCS unknown

Expand to show TLE details & history
Last TLE update: 5 days ago

TLE from 5 days ago
0 OBJECT A
1 66175U 25242A   25306.93661115  .00011497  00000-0  43020-3 0  9992
2 66175  97.4418  19.1026 0010484 237.3097 122.7131 15.27424189  1198
Epoch: 2025-11-02T22:28Z
TLE epoch observation values (Epoch: 2025-11-02T22:28:43.203Z)
Latitude
-0.00007°
Longitude
-0.52259°
Altitude
490.509 km
Speed
7.618 km/s
True Right ascension
01h 16m 24s
True Declination
0° 00' 00"
Sunlit
Object was in full shadow at epoch
Visualization orbit readout
Latitude
Unknown
Longitude
Unknown
Altitude
Unknown
Speed
Unknown
Apparent Right ascension
Unknown
Apparent Declination
Unknown
Sunlit
N/A
Visualization observer readout
Local Sidereal Time
06:07:11
Azimuth
Unknown
Elevation
Unknown
Doppler factor
Unknown
Orbital elements
Apogee altitude
487.664 km
Perigee altitude
473.283 km
Semi-major axis
6,858.61 km
Eccentricity
0.00105
Inclination
97.4418°
RAAN
19.1026°
Arg. of periapsis
237.3097°
True anomaly
122.81411°
Mean anomaly
122.7131°
Eccentric anomaly
122.76361°
Mean motion
3.82111 °/min
Orbital period
94.21 mins
BSTAR
0.0004302
Loading maneuver chart data...
Computing Atmospheric mass density...
Loading historical data...
Loading historical data...
Loading historical data...
Loading historical data...
Loading historical data...
Loading historical data...
Loading historical data...
Other satellites on launch #242 in the year 2025 (2025-10-26 UTC)

Documentation

Showing up to 5 results
|